Theta_e
289 289 288 287 286 284 284 284 284 283 282 281 280 279 278 277 276 275 273 272 271 271 270 270 269 269 268 268 268 268 267 267 267 267 267 267 267 267 267 266 266 266 266 266 266 266 266 266 266 267 267 267 267 266 266 266 266 266 266 266 265 265 265 265 264 265 267 267 267 267 267 267 268 269 269 270 270 271 271 272 272 272 272 273 273
288 287 286 285 284 284 284 283 283 283 282 281 279 279 277 276 275 274 273 272 271 270 270 269 269 268 268 268 267 267 267 267 267 266 266 266 266 266 267 266 266 266 266 266 266 266 266 266 266 266 266 266 266 266 266 266 266 266 266 265 265 265 265 265 265 265 266 266 267 266 266 266 267 267 268 269 270 270 271 271 271 271 272 272 272
287 286 285 284 284 283 283 283 283 282 281 280 279 278 276 276 275 273 272 271 270 270 269 269 268 268 268 267 267 267 267 267 266 266 266 266 266 266 266 266 266 266 266 266 266 266 266 266 266 266 266 266 266 266 266 266 266 266 265 265 265 265 265 265 265 265 265 266 266 266 265 265 266 266 266 267 269 269 270 270 270 271 271 271 272
286 285 284 284 283 283 283 283 282 281 280 279 278 277 276 275 274 273 271 270 270 269 269 268 268 268 267 267 267 267 266 266 266 266 266 266 266 266 266 266 266 266 266 266 265 265 265 266 266 266 265 265 265 265 265 265 266 265 265 265 265 265 265 265 265 265 265 265 265 265 265 265 265 265 265 266 267 268 269 269 270 270 270 271 271
285 284 284 283 283 283 282 282 281 280 279 278 277 276 275 274 273 272 271 270 269 269 268 268 267 267 267 267 267 266 266 266 266 266 266 266 266 266 266 266 266 266 265 265 265 265 265 265 265 265 265 265 265 265 265 265 265 265 265 265 265 265 265 265 265 264 264 265 265 265 264 264 264 265 265 265 266 267 268 269 269 269 270 270 270
284 284 283 283 283 282 282 281 280 279 278 277 276 275 274 273 272 271 270 269 268 268 268 267 267 267 267 266 266 266 266 266 266 266 266 266 266 266 266 266 266 265 265 265 265 265 265 265 265 265 265 265 265 265 265 265 265 265 265 265 265 264 264 264 264 264 264 264 264 264 264 264 264 264 264 264 265 266 267 268 269 269 269 269 269
284 283 283 283 282 282 281 280 279 278 277 276 275 274 274 273 271 270 269 269 268 268 267 267 267 267 266 266 266 266 266 266 266 266 266 266 266 266 266 266 265 265 265 265 265 265 265 265 265 265 265 265 265 265 265 265 265 265 264 264 264 264 264 264 264 264 264 264 264 264 264 264 264 264 264 264 264 264 265 266 267 268 268 268 269
283 283 283 282 282 281 280 279 278 277 276 275 274 274 273 272 270 269 269 268 268 267 267 267 267 266 266 266 266 266 266 265 265 265 265 266 266 266 266 265 265 265 265 265 265 265 265 265 265 265 265 265 265 265 265 265 264 264 264 264 264 264 264 264 264 264 264 264 264 263 263 263 263 263 263 263 263 264 264 265 265 266 267 268 268
283 282 282 282 281 280 279 278 277 276 275 275 274 273 272 271 270 269 268 268 267 267 267 267 266 266 266 266 266 266 265 265 265 265 265 265 266 266 266 265 265 265 265 265 265 265 265 265 265 265 265 265 265 265 265 265 264 264 264 264 264 264 263 263 263 263 263 263 263 263 263 263 263 263 263 263 263 264 264 264 264 265 266 267 268
282 282 281 280 280 279 278 277 276 275 275 274 273 272 271 270 269 268 268 268 267 267 267 267 266 266 266 266 266 266 266 266 265 265 265 265 265 265 265 266 265 265 265 265 265 265 265 265 265 265 265 265 265 265 265 265 264 264 264 264 263 263 263 263 263 263 263 263 263 263 263 263 263 263 263 263 263 264 264 264 264 265 265 265 267
281 281 280 279 278 277 277 276 275 275 274 273 272 271 270 269 268 268 268 267 267 267 267 266 266 266 266 266 266 266 266 266 265 265 265 265 265 265 265 265 265 265 265 265 264 264 264 264 264 264 265 265 265 264 264 264 264 264 263 263 263 263 263 263 263 263 263 263 263 263 263 263 263 263 263 264 264 264 264 264 264 265 265 265 266
280 280 279 278 278 277 276 275 274 274 273 272 270 270 269 269 268 268 268 267 267 267 266 266 266 266 265 265 266 266 266 266 265 265 265 265 266 266 265 264 264 264 264 264 263 263 263 263 263 263 264 264 264 264 264 264 264 264 264 263 263 263 263 264 264 263 263 263 263 263 263 263 263 263 264 264 264 264 264 264 265 265 265 265 265
279 279 278 278 277 276 275 274 274 273 272 270 270 269 269 268 268 268 267 267 267 267 266 266 266 266 265 265 265 265 266 265 265 265 265 265 266 266 265 265 264 264 264 264 263 263 263 263 263 263 264 264 264 264 264 264 264 264 264 263 263 263 263 263 264 264 263 263 263 263 263 264 264 264 264 264 264 264 264 264 265 264 265 265 265
279 278 277 277 276 275 274 274 273 272 271 270 269 269 269 268 268 267 267 267 266 266 266 266 266 266 265 265 265 265 266 265 265 265 265 265 266 266 265 265 265 264 264 264 263 263 263 263 263 263 264 264 264 264 264 264 264 264 263 263 263 263 263 263 263 263 263 263 263 263 263 264 264 264 264 264 264 264 264 264 265 265 265 265 265
278 277 276 276 275 274 274 273 272 271 270 270 269 269 269 268 267 267 266 266 266 266 266 266 266 266 266 265 265 265 266 266 265 265 265 265 266 265 265 264 264 264 263 263 263 263 263 262 262 263 263 263 263 264 264 264 264 263 263 263 263 263 263 263 263 263 263 263 263 263 264 264 264 264 264 265 265 265 265 265 265 266 266 266 266
277 276 275 275 274 273 273 271 271 270 270 269 269 269 268 268 267 267 266 266 266 266 266 266 266 266 266 265 265 266 266 266 265 265 265 265 265 265 264 264 263 263 263 263 263 263 263 262 263 263 263 263 263 263 263 263 263 263 263 263 263 263 263 263 263 263 264 264 264 264 264 265 265 265 265 266 266 266 266 266 266 266 266 266 266
276 275 274 274 273 272 271 270 270 270 269 269 269 268 268 267 267 266 266 266 266 266 266 266 266 266 266 265 265 265 266 266 265 265 265 265 264 264 263 263 262 262 263 263 263 263 263 263 263 263 263 263 263 263 263 263 263 263 263 263 263 263 263 263 264 264 264 265 265 265 265 265 265 265 266 266 266 266 265 265 265 265 265 265 265
274 274 273 273 272 271 270 270 270 269 269 269 268 268 267 267 267 266 266 266 266 266 266 266 266 266 266 266 265 265 266 266 265 265 265 264 264 263 263 262 262 262 262 262 262 262 262 262 262 263 263 263 263 263 263 263 263 263 263 263 263 263 263 263 263 264 264 264 265 265 265 265 265 265 265 265 265 265 265 265 265 265 265 265 265
273 273 272 271 271 270 270 270 269 269 269 268 268 267 267 267 267 267 266 266 266 266 266 266 266 266 266 266 265 265 265 266 265 265 264 264 264 263 263 262 262 262 262 262 262 262 262 262 262 262 263 262 263 263 263 264 264 264 264 264 263 263 263 263 263 263 263 264 264 264 264 264 264 264 264 264 264 265 264 264 264 264 264 264 264
272 272 271 271 270 270 270 270 269 269 269 268 268 267 267 267 267 267 266 266 266 266 266 266 266 266 266 265 265 265 265 265 265 265 264 264 264 263 262 262 262 262 261 261 261 261 261 262 262 263 262 262 262 263 264 265 265 264 264 264 264 263 263 264 263 263 263 263 263 263 264 264 264 264 264 264 264 264 264 264 264 264 264 264 264
271 271 271 270 270 270 270 269 269 269 268 268 268 268 267 267 267 267 266 266 266 266 266 266 266 266 266 265 265 265 265 265 265 265 264 264 264 263 262 262 261 261 261 261 261 261 261 262 262 262 262 262 262 262 264 265 265 264 264 264 264 264 264 264 264 264 263 263 263 263 263 264 264 264 264 264 264 264 264 264 264 263 263 263 263
271 271 270 270 270 270 269 269 269 269 268 268 268 268 267 267 267 267 266 266 266 266 266 266 265 266 266 266 265 265 265 265 265 265 264 264 264 263 263 262 262 261 261 261 261 261 262 262 262 262 262 262 262 263 264 264 264 264 264 264 264 265 265 264 264 264 263 263 263 263 263 263 263 263 263 263 263 263 263 263 263 263 263 263 263
270 270 270 270 270 270 269 269 269 268 268 268 268 268 267 267 267 266 266 266 266 266 266 266 265 265 265 266 265 265 265 265 264 264 264 264 264 263 263 263 262 262 261 261 261 261 261 261 261 261 261 262 262 263 264 264 264 264 264 264 264 264 264 264 263 263 263 263 262 262 262 263 263 263 263 263 263 263 263 263 263 263 263 263 263
270 270 270 270 270 269 269 269 269 268 268 268 267 267 267 267 267 266 266 266 266 266 266 265 265 265 265 265 266 265 265 265 264 264 264 264 264 263 263 263 263 262 261 261 261 261 261 261 261 261 262 262 263 263 263 264 264 264 264 264 263 263 263 263 262 262 262 262 262 262 262 262 262 262 262 262 262 262 262 262 262 263 263 263 263
270 270 270 270 270 269 269 269 268 268 268 267 267 267 267 267 266 266 266 266 266 266 266 265 265 265 265 265 266 265 265 264 264 264 264 263 263 262 262 262 262 262 262 262 262 261 261 261 261 262 262 262 263 263 263 263 263 263 263 263 262 262 262 262 262 262 261 261 261 261 261 262 262 261 261 261 261 261 261 262 262 262 262 262 262
270 270 270 270 269 269 269 269 268 268 268 267 267 267 267 266 266 266 266 266 265 265 265 265 265 265 265 265 265 265 264 264 264 264 263 262 262 262 261 261 262 262 262 262 262 262 262 262 262 262 261 261 261 262 262 262 262 262 262 262 262 262 261 261 261 261 261 261 261 261 261 261 261 261 260 260 261 261 261 261 261 261 262 262 262
270 270 270 269 269 269 269 268 268 268 267 267 267 267 266 266 266 266 266 265 265 265 265 265 265 264 264 264 264 264 264 264 263 263 262 262 262 262 262 262 262 261 261 261 261 261 261 261 261 261 261 261 261 261 261 261 261 261 261 261 261 261 261 260 260 260 260 260 260 260 260 260 260 260 260 260 260 260 260 260 260 261 261 261 261
269 269 269 269 269 269 268 268 268 268 267 267 267 267 266 266 266 266 265 265 265 265 265 265 265 264 264 263 263 263 263 263 263 262 262 262 262 262 262 262 262 262 262 262 261 261 261 261 261 261 261 260 260 260 260 260 260 260 260 260 260 260 260 260 260 260 260 260 259 259 259 259 259 259 259 260 260 260 260 260 260 260 260 260 260
269 269 269 269 269 269 268 268 268 268 267 267 267 266 266 266 265 265 265 265 265 265 265 265 265 264 263 262 262 261 262 262 262 262 261 261 262 262 262 262 262 262 261 261 261 261 261 261 260 260 260 260 260 260 260 260 260 260 260 260 260 259 259 259 259 259 259 259 259 259 259 259 259 259 259 259 259 259 259 259 259 259 259 259 259
269 269 269 269 269 268 268 268 268 267 267 267 267 266 266 266 265 265 265 265 265 265 264 264 264 262 262 261 261 261 261 261 261 261 261 262 262 262 262 261 261 261 261 261 261 261 260 260 260 260 260 260 260 260 260 260 260 260 259 259 259 259 259 259 259 259 259 258 258 258 258 258 258 258 259 259 259 259 259 259 259 259 258 258 258
269 269 269 268 268 268 268 268 267 267 267 267 266 266 266 266 265 265 264 265 265 264 264 263 262 262 261 261 261 261 261 261 260 260 261 262 263 262 262 262 261 261 261 261 261 260 260 260 260 260 260 260 259 259 259 259 259 259 259 259 259 258 258 258 258 258 258 258 258 258 258 258 258 258 258 258 258 258 258 258 258 258 258 258 258
269 269 268 268 268 268 268 267 267 267 267 266 266 265 265 265 265 265 265 265 264 264 264 264 263 262 262 261 261 261 260 260 260 260 261 262 262 261 261 261 262 262 261 261 261 260 260 260 260 259 259 259 259 259 259 259 258 258 258 258 258 258 258 258 258 258 257 258 258 258 257 258 258 257 258 257 257 258 258 258 258 257 257 258 258
268 268 268 268 268 267 267 267 267 267 266 266 265 265 264 264 265 265 265 265 265 265 264 264 264 263 262 262 261 261 260 260 260 260 260 260 261 260 260 261 261 261 261 260 260 260 260 259 259 259 259 258 258 258 258 258 258 258 258 258 258 258 258 258 257 257 257 257 257 257 257 257 257 257 257 257 257 257 257 257 257 257 257 257 258
268 268 268 267 267 267 267 267 266 266 266 265 265 264 264 264 264 264 265 265 266 265 265 265 264 263 263 263 262 261 261 261 260 260 260 260 260 260 259 259 260 260 260 259 259 259 258 258 258 258 258 258 257 257 257 257 257 257 257 257 257 257 257 257 257 257 257 257 257 257 257 257 257 256 256 256 256 256 256 257 257 257 257 257 258
268 268 267 267 267 267 267 266 266 265 265 265 264 264 264 264 264 264 264 264 265 265 265 265 264 263 263 263 263 262 261 261 260 261 261 260 259 259 259 259 259 258 258 258 258 258 257 257 257 257 257 257 257 257 257 257 257 257 257 257 257 256 256 256 256 256 256 256 256 256 256 256 256 256 256 256 256 256 256 256 256 256 257 257 257
268 267 267 267 267 266 266 266 265 265 264 264 264 264 264 264 264 264 264 264 264 264 265 265 264 264 263 263 262 262 261 261 260 260 259 258 258 258 258 258 258 258 257 257 257 257 256 256 256 256 256 256 256 256 256 256 256 256 256 256 256 256 256 256 256 256 256 256 256 256 256 256 256 255 255 255 255 256 256 256 256 256 256 257 257
267 267 267 267 266 266 265 265 264 264 264 264 264 264 264 264 264 264 263 263 263 263 264 264 264 264 264 263 262 261 260 260 260 260 259 258 258 258 258 258 257 257 257 256 256 256 255 255 255 255 255 255 254 254 254 254 254 254 255 255 255 255 255 255 255 255 255 255 255 255 255 255 255 255 255 255 255 255 255 256 255 256 256 256 257
267 267 266 266 265 265 265 264 264 264 264 264 264 264 264 264 264 263 263 263 263 263 263 263 263 263 263 263 262 260 260 260 260 260 259 259 258 258 257 257 256 256 256 255 255 254 254 254 254 253 253 253 253 253 253 253 253 253 253 254 254 254 254 254 254 254 254 255 255 255 255 255 255 254 254 254 255 255 255 255 255 255 256 256 257
266 266 266 265 265 264 264 264 264 264 264 264 264 264 264 263 263 263 263 263 263 263 262 262 263 263 262 262 261 260 260 260 260 260 259 259 258 257 256 256 255 255 255 254 254 253 253 253 252 252 252 252 252 252 252 252 252 252 252 253 253 253 253 253 253 253 254 254 254 255 255 255 254 254 254 254 254 255 255 255 255 255 256 256 257
266 266 265 265 264 264 264 264 264 264 264 264 264 264 263 263 263 263 262 262 262 262 262 262 262 262 261 261 260 259 258 258 259 258 258 257 257 256 255 255 254 254 254 253 253 253 252 252 252 252 251 251 251 251 251 251 251 251 251 251 252 252 252 252 252 253 253 253 254 254 254 254 254 253 253 254 254 254 254 254 255 255 255 256 257
265 265 265 264 264 264 264 264 264 264 264 264 264 263 263 263 262 262 262 262 262 262 262 262 262 262 261 260 259 257 256 255 255 255 255 255 255 254 254 254 253 253 253 253 252 252 252 252 252 251 251 251 251 251 251 251 250 250 250 251 251 251 251 252 252 252 252 253 253 254 254 254 253 253 253 254 254 254 254 254 255 255 255 256 256
265 265 265 264 264 264 264 264 264 264 264 264 263 263 263 263 262 262 262 262 261 261 261 261 261 261 260 260 258 257 255 254 254 254 254 254 253 253 253 253 252 252 252 252 252 252 252 252 251 251 251 251 251 250 250 250 250 250 250 250 250 250 251 251 251 251 252 252 253 254 254 254 253 253 253 254 254 254 254 254 255 255 255 256 256
265 265 265 264 264 264 265 265 264 264 264 263 263 263 263 262 262 262 261 261 261 261 260 260 261 260 260 259 258 256 255 255 254 254 253 253 253 252 252 252 252 252 252 252 252 251 251 251 251 251 251 251 250 250 250 250 250 250 250 250 250 250 250 250 251 251 251 252 253 253 253 253 253 253 253 253 254 254 254 254 255 255 255 256 257
265 265 265 265 265 265 265 264 264 264 264 263 263 263 262 262 262 261 261 261 260 260 260 260 259 259 259 258 257 255 254 254 253 253 252 252 252 252 251 251 251 251 251 251 251 251 251 251 251 251 251 250 250 250 250 250 249 249 249 249 249 249 249 250 251 251 251 252 252 253 253 253 253 253 253 253 253 254 254 254 255 255 255 256 257
265 265 265 265 265 265 265 264 264 264 264 263 263 263 262 262 261 261 260 260 260 260 259 259 258 258 257 256 255 254 253 253 252 252 251 251 251 251 251 251 251 251 251 251 251 251 251 251 251 250 250 250 250 250 250 249 249 249 249 249 249 249 249 250 250 250 251 252 252 253 253 253 253 253 253 253 253 254 254 255 255 255 256 256 257
265 265 265 265 265 265 265 264 264 264 263 263 263 263 262 262 261 261 260 260 259 259 259 258 257 256 255 254 254 253 252 252 251 251 251 251 251 251 251 251 251 251 251 251 251 251 251 251 250 250 250 250 250 250 249 249 249 249 249 249 249 249 249 249 249 250 251 252 252 253 253 253 253 253 253 253 254 254 254 255 255 255 256 256 257
265 265 265 265 265 265 265 264 264 264 263 263 263 262 262 262 261 260 260 260 259 259 258 257 257 255 254 253 253 252 251 251 251 251 250 250 250 250 250 251 251 251 251 251 251 251 250 250 250 250 250 250 249 249 249 249 249 248 248 248 248 248 248 249 249 250 251 251 252 252 253 253 253 253 253 253 254 254 254 255 255 255 256 256 257
265 265 265 265 265 265 264 264 264 264 263 263 263 262 262 261 261 260 260 259 259 258 258 257 256 254 253 253 252 251 251 251 250 250 250 250 250 250 250 250 250 251 251 250 250 250 250 250 250 250 250 249 249 249 249 249 248 248 248 248 248 248 248 248 249 250 250 251 252 252 253 253 253 253 253 254 254 254 254 255 255 256 256 256 257
265 265 265 265 265 264 264 264 264 264 263 263 262 262 261 261 260 260 259 259 258 258 257 256 254 253 252 252 251 251 251 250 250 250 250 250 250 250 250 250 250 250 250 250 250 250 250 250 250 250 249 249 249 249 248 248 248 248 248 248 247 248 248 248 249 250 250 251 252 252 252 253 253 253 254 254 254 254 254 255 255 256 256 257 257
265 265 265 265 265 264 264 264 264 263 263 262 262 262 261 261 260 260 259 258 258 257 256 255 254 253 252 251 251 250 250 250 250 250 250 250 250 250 250 250 250 250 250 250 250 250 250 250 249 249 249 249 248 248 248 248 248 248 247 247 247 247 248 248 249 250 250 251 252 252 252 253 253 253 254 254 254 254 255 255 255 256 256 257 257
265 265 265 265 265 264 264 264 264 263 263 262 262 261 261 260 260 259 258 258 257 256 255 254 253 252 251 251 250 250 250 250 249 250 250 250 250 250 250 250 250 250 250 250 250 250 249 249 249 249 249 248 248 248 248 248 247 247 247 247 247 247 248 248 249 250 250 251 252 252 252 253 253 253 254 254 254 254 255 255 255 256 256 257 257
Wind_Speed
38 38 37 35 35 34 34 35 36 37 37 36 35 36 36 35 35 35 34 34 33 33 33 32 31 31 31 30 29 28 28 28 28 28 28 29 29 28 28 27 27 27 26 26 25 24 25 25 25 24 23 24 25 24 24 23 23 24 23 24 24 24 24 26 31 39 41 38 38 38 36 36 36 35 34 34 33 31 31 31 31 31 31 31 30
36 35 34 34 33 33 33 34 36 37 37 36 37 37 36 35 35 35 34 34 33 33 32 32 32 31 31 31 30 29 29 28 28 28 29 29 29 29 29 28 28 27 27 27 26 25 25 26 26 25 24 24 25 24 24 24 23 24 24 24 25 24 23 25 29 35 40 40 38 38 36 34 35 33 32 33 33 31 31 31 30 30 30 31 31
33 33 33 33 32 33 33 34 35 36 37 37 37 36 35 35 34 34 34 33 32 32 32 32 32 32 32 31 31 30 29 29 29 29 29 29 29 30 29 29 28 28 28 28 27 26 26 27 26 25 24 25 25 24 24 24 23 24 24 23 24 25 23 25 28 32 38 40 39 37 36 34 33 31 30 33 33 32 33 33 32 31 31 30 31
32 32 32 32 32 33 33 34 35 36 37 36 35 35 34 34 33 33 32 32 31 31 31 31 32 32 32 32 31 31 30 29 29 29 29 29 30 30 30 30 29 29 29 29 28 27 27 28 27 25 25 25 26 24 24 23 23 24 24 24 25 26 25 25 28 30 34 39 39 37 36 35 35 34 32 34 33 31 32 33 32 32 31 30 30
31 31 31 31 32 33 33 34 35 36 35 34 34 33 33 33 32 32 31 31 30 31 31 31 31 32 33 32 32 31 30 30 30 30 30 30 30 30 30 30 30 30 30 29 29 28 28 28 27 26 25 26 26 25 24 23 23 24 25 25 25 26 26 27 28 29 32 37 39 37 36 35 37 37 34 34 34 33 32 32 32 32 32 30 29
31 31 31 31 32 32 33 34 35 34 33 33 33 33 32 32 32 32 31 30 30 31 31 31 32 33 33 32 31 31 31 30 30 30 31 31 31 31 31 31 31 31 30 30 30 29 29 29 27 26 26 27 26 25 25 24 24 25 25 26 26 26 27 27 28 29 31 35 37 37 36 35 35 36 33 31 32 33 32 32 31 31 31 31 30
30 30 31 31 32 32 33 33 32 31 31 32 32 32 32 33 32 31 30 30 31 31 31 32 33 33 32 31 31 31 31 31 31 31 31 32 32 32 32 32 32 32 31 31 30 30 30 29 28 27 26 27 27 26 26 26 26 26 26 26 26 26 27 28 28 30 32 34 36 36 35 34 34 35 33 31 31 31 30 31 33 31 30 31 31
30 30 30 31 32 32 31 31 30 30 31 32 32 33 33 33 32 31 30 31 31 31 32 33 33 32 31 31 31 31 31 31 32 32 32 32 32 32 32 32 33 32 32 31 31 30 30 29 29 28 27 27 27 27 27 27 27 28 27 26 27 27 28 29 29 30 31 33 35 35 35 35 34 34 33 30 30 30 29 29 33 33 31 30 31
28 29 29 30 30 30 29 29 30 30 31 32 33 34 34 33 32 31 31 31 32 32 33 32 32 32 31 31 32 32 32 33 33 33 33 33 33 33 32 32 33 33 32 31 31 30 29 29 29 29 28 29 29 28 28 28 28 29 28 27 27 27 28 28 28 29 30 33 35 35 36 36 35 34 34 31 30 32 31 30 33 34 32 32 32
27 27 28 28 28 28 28 29 30 31 31 32 34 34 33 32 31 31 31 31 32 33 33 32 32 32 32 32 32 33 33 34 33 33 33 34 33 33 33 33 33 32 32 32 31 31 31 31 31 30 30 30 30 30 29 29 28 29 28 27 27 27 28 29 29 30 31 34 36 36 36 36 34 33 34 33 32 33 32 31 33 33 32 34 35
25 26 26 26 27 28 29 29 30 31 32 33 34 33 31 30 30 31 31 32 33 32 32 32 32 32 33 33 33 33 34 34 34 34 33 33 32 32 33 34 33 33 33 34 33 32 32 33 34 33 32 32 31 30 30 30 29 29 28 27 27 28 29 31 32 32 34 37 38 37 37 37 36 35 35 34 33 32 31 30 31 31 31 33 36
25 25 26 26 27 28 29 29 30 31 33 33 32 31 30 29 30 31 32 32 32 31 31 32 33 33 33 34 34 34 34 34 34 34 34 32 30 30 32 33 33 33 34 34 34 33 34 35 36 35 34 33 32 32 32 32 31 31 31 30 30 30 31 32 34 35 36 38 39 38 37 36 35 34 32 31 30 30 29 28 28 31 31 32 37
25 26 26 27 28 28 29 30 31 32 32 31 30 29 29 30 30 31 30 30 30 31 31 32 33 33 33 34 34 35 35 34 34 34 34 32 30 30 32 33 34 35 35 36 35 35 36 36 37 37 36 35 34 34 34 34 34 34 33 32 32 32 32 32 33 34 35 36 38 38 36 33 34 34 32 32 33 33 33 33 33 35 35 35 39
26 27 27 28 28 29 29 31 32 32 31 30 29 29 29 30 30 29 29 29 29 31 31 32 33 33 33 33 34 35 35 34 34 33 33 32 30 30 31 33 34 35 36 35 35 36 36 36 37 38 37 37 36 35 35 35 35 35 34 34 34 33 33 32 32 32 33 34 36 38 35 33 35 36 34 33 35 36 36 37 36 37 38 38 40
26 27 27 28 28 29 30 31 31 31 30 29 28 29 29 29 29 28 28 28 29 30 31 32 33 33 33 33 34 36 36 34 34 33 32 31 30 30 31 33 34 35 35 36 37 37 37 38 39 40 39 38 36 35 35 35 35 35 35 35 34 32 31 31 30 30 30 31 33 34 33 31 31 31 30 30 32 34 35 36 36 37 38 39 39
26 27 28 28 28 29 30 31 30 29 28 28 28 28 28 28 28 27 27 28 29 30 31 32 32 33 33 34 35 37 36 35 34 33 32 31 31 31 33 35 35 36 38 40 41 41 41 41 41 41 40 38 36 34 33 33 34 35 34 33 32 31 30 29 28 28 29 29 30 30 30 29 29 28 28 27 28 28 28 28 28 28 29 32 33
26 27 27 28 28 29 29 29 29 28 27 27 27 27 27 27 27 27 28 29 29 30 31 32 32 33 34 34 36 37 37 35 34 33 32 31 31 32 34 34 35 36 37 39 40 40 40 40 39 39 38 36 34 32 31 30 32 33 33 32 31 31 31 29 27 27 28 28 29 29 29 28 27 27 25 22 20 21 21 21 21 20 21 23 25
25 26 26 26 27 28 28 28 27 27 27 27 27 27 27 27 27 27 28 29 30 30 31 32 33 34 35 35 35 37 37 35 33 33 32 31 30 31 32 33 34 35 36 37 38 39 39 39 38 37 36 34 31 30 29 29 30 31 31 32 32 33 32 30 29 29 28 27 28 29 30 30 30 31 30 27 26 27 29 29 27 25 24 25 25
24 24 25 26 27 27 27 27 27 26 26 27 26 27 27 28 28 28 29 30 30 31 31 33 34 34 35 35 35 36 36 34 32 32 31 30 30 31 32 33 35 36 37 37 38 38 38 38 36 34 33 31 29 29 27 26 28 30 30 31 33 34 33 32 32 32 31 30 30 31 32 33 34 35 35 34 33 33 33 33 31 28 28 28 28
22 23 25 26 27 27 26 26 26 26 26 26 26 27 28 28 28 29 29 30 31 32 32 33 35 35 35 35 35 35 35 34 32 31 30 30 29 29 30 32 34 35 35 35 36 36 37 37 35 31 30 29 28 28 26 25 27 29 31 32 34 34 33 33 34 34 35 35 34 34 34 34 35 37 36 36 35 35 34 34 31 30 30 30 29
22 24 26 26 26 26 25 25 25 25 26 26 27 28 28 28 29 30 30 31 31 33 33 34 35 36 35 35 35 34 34 33 32 30 30 30 29 28 30 32 33 34 34 35 36 37 37 36 33 29 27 27 28 28 27 25 26 29 31 32 33 33 33 35 34 33 34 35 34 33 33 33 35 36 36 35 35 34 34 34 33 33 32 32 31
23 25 26 26 26 25 24 24 24 25 25 26 27 28 28 28 29 30 31 31 32 33 34 34 35 36 35 34 34 33 32 32 31 30 29 29 29 29 30 32 33 32 33 34 35 36 35 34 32 29 28 28 29 29 27 26 26 28 30 30 31 31 33 32 30 28 28 29 30 30 30 30 32 34 34 34 34 35 36 36 37 36 36 35 34
24 26 26 26 25 24 23 23 24 24 25 25 27 28 28 28 29 30 31 32 32 33 34 34 35 35 35 34 34 33 31 30 30 30 30 29 29 29 29 31 30 29 30 32 33 33 34 34 33 32 31 31 30 28 27 26 25 27 28 28 26 28 29 27 25 24 24 25 27 29 29 30 32 34 35 36 37 37 38 39 39 38 38 38 38
25 26 26 26 24 23 23 23 23 24 24 25 26 28 29 29 29 30 31 31 32 34 34 34 34 35 35 35 34 32 30 29 28 28 29 28 28 28 27 28 27 27 29 30 32 33 35 35 35 35 33 32 30 28 28 28 27 28 30 28 26 27 29 28 27 28 29 30 32 33 34 34 36 37 38 38 39 39 40 40 40 40 40 41 41
26 26 26 25 24 23 23 23 23 23 23 25 27 28 29 29 30 30 31 32 33 34 34 34 34 35 35 35 34 32 29 28 28 27 26 26 25 25 25 26 26 27 29 31 33 34 35 36 35 35 33 31 30 30 30 31 31 32 33 32 31 33 34 34 34 35 36 37 37 38 38 38 38 39 38 38 39 39 39 40 40 39 40 41 42
26 26 26 25 23 23 23 23 22 23 23 25 27 28 29 30 30 31 31 32 33 33 34 34 34 34 34 34 33 31 29 28 27 25 22 22 22 23 24 26 28 29 30 32 34 35 36 36 36 36 34 32 32 32 33 33 34 34 35 35 36 37 37 38 38 38 39 39 38 38 38 38 38 38 37 37 37 38 37 37 38 38 37 37 39
27 26 26 25 24 23 23 23 23 23 24 25 26 27 28 29 30 31 32 32 33 33 34 34 33 33 33 32 30 29 28 27 26 23 22 22 24 25 27 27 27 27 28 29 30 30 31 32 32 33 32 32 31 32 32 33 34 35 36 37 37 38 38 38 37 37 37 37 36 36 35 35 35 35 35 35 35 35 34 33 34 35 34 34 36
27 27 26 25 24 23 23 23 24 24 25 26 27 28 28 29 31 32 32 32 32 33 33 33 33 31 30 29 28 27 28 27 25 24 24 26 27 27 25 23 22 22 24 26 27 28 29 30 31 32 32 32 33 33 33 33 33 33 34 34 34 35 35 35 35 34 34 34 34 34 33 33 33 33 33 33 33 32 31 30 31 32 32 31 33
27 27 26 25 24 23 23 24 24 25 27 27 28 28 29 30 32 33 32 31 31 32 32 32 32 29 28 27 27 28 30 30 28 28 29 29 28 26 24 24 25 26 28 28 29 30 32 33 33 33 33 33 33 33 33 33 32 32 32 32 32 32 32 33 33 33 32 32 33 33 33 33 33 33 32 32 31 30 29 28 29 30 29 30 32
28 27 26 25 24 24 24 25 25 26 28 28 29 30 30 30 31 32 33 32 31 31 32 31 30 29 30 31 31 31 33 33 31 30 29 27 26 25 26 28 29 30 30 29 30 32 34 34 35 35 34 34 34 35 34 33 33 33 32 32 33 32 32 32 32 32 32 32 33 33 34 34 34 32 30 30 29 28 27 27 27 28 29 29 31
28 27 26 25 25 24 25 26 26 27 28 29 31 32 32 32 32 31 31 31 30 30 29 28 27 26 29 31 32 32 33 33 31 29 28 26 26 28 30 30 30 29 28 27 29 32 33 34 35 35 35 36 36 36 35 34 33 33 33 33 33 33 32 32 32 31 32 33 33 34 34 33 32 30 29 28 28 28 27 27 27 27 28 28 30
28 27 26 26 26 25 26 27 27 28 29 30 31 32 33 34 35 33 31 30 29 29 28 27 26 25 25 27 28 28 29 30 30 30 29 29 29 31 34 35 33 31 30 31 33 35 35 35 35 35 35 35 36 35 35 35 35 35 35 35 35 35 34 34 33 32 33 34 34 34 33 32 30 29 28 27 27 27 27 26 27 27 27 28 28
27 27 27 27 27 27 27 27 27 28 30 31 31 32 32 34 35 35 34 33 31 30 29 28 28 27 26 26 26 27 29 30 31 30 30 31 33 34 35 35 32 30 31 34 36 37 37 36 35 34 34 35 35 35 36 36 36 36 36 36 37 36 35 35 35 35 35 35 33 32 31 29 28 27 27 26 26 26 26 26 27 27 27 27 27
27 27 27 27 27 27 27 27 28 29 30 31 31 31 32 32 33 34 36 35 35 33 32 31 29 28 27 27 26 26 27 28 29 31 32 34 34 32 30 29 28 27 29 31 32 33 34 34 34 34 34 35 36 36 37 38 38 38 37 37 37 37 36 35 36 36 35 33 32 31 29 27 26 26 26 26 25 26 26 26 26 26 25 26 27
26 27 27 27 27 27 27 27 28 29 30 30 30 31 31 31 31 32 34 35 36 36 35 34 32 30 29 28 27 26 25 25 26 27 28 27 25 23 24 26 27 28 30 32 33 34 34 35 36 37 37 38 38 39 40 40 40 40 39 38 37 36 35 34 34 34 33 31 30 28 27 26 26 25 25 25 25 25 26 26 25 25 24 25 26
25 26 25 25 26 26 27 28 29 29 30 30 30 30 30 30 31 32 32 33 35 36 36 35 33 31 30 29 27 26 25 25 26 26 23 21 19 20 25 29 31 31 32 33 34 35 35 36 37 37 37 38 38 38 38 38 38 37 37 35 34 34 33 33 32 32 31 29 28 26 25 25 25 24 24 24 25 25 25 24 24 24 24 24 25
24 24 24 24 25 26 27 28 29 29 29 29 29 29 29 29 30 31 32 33 34 34 35 35 33 32 31 29 27 26 26 26 26 26 24 22 22 24 29 32 33 34 34 34 34 34 34 34 33 33 33 34 34 34 33 33 33 33 33 32 32 32 31 31 31 30 29 28 27 25 25 25 24 23 23 24 24 24 24 23 23 23 23 23 23
23 24 24 24 25 27 28 29 29 29 28 28 28 28 29 29 30 30 31 32 33 33 34 34 33 33 32 30 28 27 27 27 28 27 26 26 25 26 28 29 30 32 33 32 31 30 30 29 28 28 29 29 30 30 30 29 29 29 29 29 30 29 29 29 29 29 28 27 26 25 24 24 23 22 23 24 24 23 23 22 22 23 22 22 23
24 24 24 25 26 27 28 28 28 28 27 27 27 28 28 29 30 30 31 32 32 33 33 34 34 33 32 31 29 28 28 29 30 29 29 28 27 27 27 27 27 28 29 29 28 28 27 26 25 25 26 26 27 27 27 26 25 25 25 25 27 27 27 27 27 27 26 25 24 24 23 23 22 22 22 23 23 23 22 22 22 22 22 23 23
24 24 25 25 26 26 27 27 27 27 27 27 27 28 29 29 30 30 31 32 32 33 33 33 34 33 32 31 30 29 28 30 30 30 30 30 29 29 29 29 29 29 29 28 28 27 26 25 23 23 23 24 24 25 25 24 23 23 22 23 24 25 25 26 26 25 25 24 23 23 23 22 22 22 22 23 23 22 21 21 21 21 22 22 23
25 25 25 25 25 25 26 26 26 26 26 27 27 28 29 30 30 30 31 32 32 33 33 34 34 33 32 31 29 27 26 28 29 29 29 30 30 30 29 29 29 28 27 27 26 26 25 24 23 22 22 22 22 23 23 22 22 22 22 22 22 23 24 24 24 24 24 23 22 22 22 21 21 22 22 22 22 21 20 20 20 21 21 22 22
25 25 25 25 24 25 25 25 26 26 27 27 28 28 29 30 30 30 31 32 32 33 33 34 34 32 31 30 28 26 25 26 27 28 28 28 27 27 27 26 26 25 24 24 23 23 23 23 22 22 22 22 21 22 22 21 21 21 21 21 21 22 22 23 23 23 22 22 21 21 21 21 21 22 22 22 21 20 20 19 20 20 21 21 21
24 24 24 24 24 24 25 26 26 27 27 28 28 29 29 30 31 31 32 32 32 32 33 34 33 32 31 29 28 26 26 26 26 26 26 26 26 26 25 24 23 22 21 21 20 20 20 21 21 21 21 21 21 21 21 20 20 20 20 20 20 21 21 22 22 22 21 20 20 20 20 20 21 21 21 21 21 20 19 19 20 20 20 20 20
23 23 23 23 24 25 25 26 26 27 27 28 29 29 30 30 31 31 31 32 32 32 33 33 33 32 31 29 28 27 26 26 26 25 25 26 25 25 24 23 22 21 20 19 18 18 19 19 20 20 20 20 20 21 21 20 19 19 19 19 20 20 21 21 21 20 19 19 19 19 20 20 20 20 21 20 20 19 19 19 19 20 19 19 19
22 23 23 24 25 26 26 26 26 27 28 28 29 30 30 31 31 31 32 32 32 32 32 32 32 31 30 29 28 27 26 26 25 25 25 25 25 24 23 22 21 20 19 18 17 17 18 18 19 19 19 19 19 19 20 20 19 19 19 19 19 20 20 20 19 18 18 18 19 19 19 20 19 19 20 19 18 18 19 19 18 19 19 18 18
22 23 24 25 26 26 27 27 27 28 29 29 30 31 32 32 32 32 32 32 32 32 32 32 31 29 29 28 27 26 26 25 25 25 25 24 24 23 21 20 19 18 18 17 16 16 17 18 18 18 18 18 18 18 19 19 19 20 19 19 19 20 20 19 18 18 17 17 18 18 18 19 18 18 18 18 17 17 18 18 18 18 18 17 17
24 24 25 26 26 27 27 27 28 28 29 30 31 32 33 33 33 32 32 32 32 32 31 31 30 29 28 27 26 26 25 25 25 24 24 23 22 20 19 18 17 17 16 16 15 16 17 17 17 17 17 18 17 18 18 19 19 20 19 17 18 19 19 18 17 17 16 16 17 17 17 18 17 17 17 17 16 16 16 17 17 17 17 16 16
25 25 26 26 27 27 28 28 29 29 30 31 32 32 33 33 32 32 32 32 31 31 31 30 29 28 27 27 26 26 25 25 24 23 22 21 20 18 17 17 17 16 15 15 15 15 16 17 17 17 17 18 18 18 19 19 19 19 18 17 17 18 17 17 16 15 15 15 16 16 16 16 16 16 16 16 15 15 15 16 16 16 15 15 15
25 26 26 27 27 28 28 29 30 30 31 31 32 32 32 32 32 32 32 31 31 31 30 29 28 27 27 27 26 26 25 24 23 22 20 19 18 17 17 17 16 16 15 15 15 16 17 17 17 17 17 17 18 18 18 18 18 17 16 15 16 16 16 16 15 15 14 15 15 15 16 16 16 16 16 14 14 14 15 15 15 15 14 14 14
26 27 27 27 28 28 28 29 30 31 31 31 32 32 32 32 32 32 31 31 31 30 29 28 27 27 26 26 26 25 24 23 21 20 19 18 17 17 17 17 16 15 15 14 15 16 16 17 16 16 16 17 17 17 17 17 17 17 16 15 15 15 15 14 14 14 14 14 14 15 15 15 16 15 14 13 13 14 14 14 14 14 14 14 13
27 27 27 27 28 28 29 30 30 31 31 32 32 32 32 32 32 31 31 30 30 29 28 27 27 26 26 26 25 24 22 21 20 19 18 17 17 17 17 17 16 15 14 15 15 15 15 15 15 16 16 17 17 17 17 17 17 18 17 16 15 14 13 13 13 13 13 13 14 14 15 15 15 14 13 12 12 13 14 14 13 13 13 13 12
Wind_Direction
269 270 271 272 273 275 274 271 269 268 268 271 275 278 281 283 286 290 292 293 293 291 289 290 291 291 291 290 289 286 283 282 282 282 282 282 282 282 282 281 280 280 280 280 279 279 278 278 277 277 277 276 276 276 276 276 277 277 278 279 279 279 281 282 283 287 291 292 294 297 299 299 297 297 298 296 294 293 291 289 288 288 286 283 277
269 270 270 271 273 274 273 270 267 266 268 272 274 276 279 281 285 289 291 292 291 288 287 288 289 290 290 290 289 287 285 283 282 282 281 281 282 282 282 281 280 279 279 279 279 279 279 278 278 278 277 276 276 276 276 276 276 276 277 278 279 279 280 283 285 288 291 292 294 296 299 300 299 300 299 296 296 296 293 291 289 287 285 284 282
269 269 270 271 273 272 269 266 264 264 267 270 272 274 277 280 285 289 291 290 287 285 285 286 288 288 288 289 288 286 285 284 282 281 281 281 282 282 281 280 280 280 279 279 280 280 279 278 277 278 278 276 275 275 275 276 275 276 276 276 278 279 281 283 284 287 290 292 293 295 298 300 299 299 298 296 296 296 294 292 291 290 287 286 284
269 270 271 272 271 269 265 263 262 263 266 269 271 274 278 282 287 289 289 287 284 283 283 284 285 286 287 288 287 286 285 283 282 280 280 281 282 282 281 280 279 280 280 281 281 280 279 278 278 278 277 275 274 274 275 276 276 276 276 276 277 279 282 283 283 285 287 289 291 294 297 298 297 296 298 298 296 293 291 291 291 290 288 286 285
271 271 271 271 269 266 263 261 261 263 266 268 271 275 280 285 288 289 286 284 281 281 282 282 283 285 286 287 286 284 283 282 280 279 280 281 282 281 280 279 279 279 280 281 281 280 279 278 277 276 275 274 274 274 275 276 277 277 277 278 279 280 280 280 281 283 284 287 289 292 294 295 296 297 299 301 299 295 290 287 288 289 289 288 284
273 272 270 269 267 265 263 262 262 264 266 270 274 278 283 287 288 287 284 281 280 280 280 281 282 284 285 285 283 282 282 281 280 279 279 280 281 281 281 280 279 279 279 280 280 279 278 277 276 274 272 271 272 274 275 275 276 276 277 278 278 278 278 278 279 281 282 284 287 291 293 296 298 298 299 301 301 299 295 290 288 288 290 291 285
272 270 269 267 265 264 263 262 263 265 269 273 278 282 286 288 287 285 282 279 279 279 279 281 283 284 284 282 281 282 282 281 280 279 279 280 281 280 280 280 280 280 279 279 278 277 276 274 273 271 269 269 271 273 274 275 275 275 276 277 277 276 276 277 278 279 280 282 284 288 292 295 297 297 298 300 298 296 296 296 294 290 287 287 286
270 269 267 266 265 264 263 263 264 268 272 276 281 285 287 288 286 283 280 278 278 278 280 282 283 283 282 281 282 282 282 281 280 279 280 281 280 280 281 281 280 280 279 279 278 276 275 273 272 270 269 268 269 271 272 274 276 276 276 277 276 276 276 277 278 278 280 282 285 289 292 294 294 295 296 296 293 292 296 299 297 293 289 287 287
268 267 266 265 265 264 263 264 267 271 276 280 284 287 287 286 283 280 278 277 278 279 281 282 282 281 281 282 282 282 281 280 280 280 281 282 282 281 281 280 279 279 279 278 276 273 271 269 269 269 269 269 269 270 272 273 275 276 277 277 277 277 278 280 282 283 284 285 287 289 290 290 290 292 292 290 290 293 298 297 294 294 296 293 286
267 266 265 265 264 263 264 267 272 275 279 283 286 287 286 283 280 278 277 277 279 281 282 282 281 281 282 283 282 281 280 280 280 280 281 283 284 285 284 283 283 282 281 281 280 278 276 274 272 272 272 272 272 273 275 277 279 280 281 282 282 283 285 286 285 284 284 284 285 286 286 285 286 288 288 290 292 294 296 295 294 296 299 296 287
266 265 264 264 264 265 269 272 275 278 282 285 286 286 284 280 277 277 277 278 280 282 282 281 280 281 282 282 281 280 279 280 280 280 281 282 284 285 285 285 286 286 285 286 285 284 282 280 279 279 278 278 279 280 282 283 283 283 279 276 275 276 278 279 279 278 278 278 280 281 280 281 284 286 288 291 293 293 292 292 293 293 294 293 291
266 264 264 265 267 269 273 274 277 280 283 286 286 284 280 277 276 276 277 280 282 281 280 280 280 280 280 281 280 280 280 280 280 280 281 281 280 280 280 280 280 279 278 279 279 278 276 276 278 279 279 279 280 280 280 280 280 279 277 273 270 268 269 270 271 272 274 276 278 279 279 281 284 285 286 288 289 289 289 288 287 287 286 286 287
265 265 266 268 270 272 274 275 278 282 285 286 284 281 278 276 276 278 280 281 281 280 279 279 279 280 279 280 280 280 281 281 280 280 280 280 277 275 274 274 273 273 272 273 273 274 274 275 276 276 276 276 276 276 277 279 279 280 279 277 274 272 271 270 269 269 271 272 274 274 273 274 275 276 278 279 280 280 281 280 280 280 280 279 283
265 266 268 269 271 273 275 277 281 284 285 285 282 279 278 278 279 281 281 281 279 279 279 279 280 280 280 281 281 281 281 281 280 280 279 279 277 274 273 272 272 272 272 272 273 273 274 274 274 275 276 275 275 276 277 279 280 280 279 278 277 276 275 273 271 270 269 268 268 269 270 270 272 275 278 278 278 278 277 278 279 279 279 281 284
266 267 269 270 272 275 277 280 283 285 285 284 282 280 280 281 283 283 282 281 280 279 280 280 281 282 282 282 282 281 282 282 281 281 280 279 278 275 272 271 270 269 269 269 269 269 270 271 272 275 276 275 274 275 276 278 278 277 277 277 277 276 274 273 272 271 270 268 268 271 273 273 274 276 278 278 278 279 280 282 283 283 283 282 281
267 268 270 272 274 276 278 281 283 285 286 284 282 282 283 284 285 284 282 281 281 281 281 282 282 283 282 282 281 282 283 283 282 281 280 279 276 273 270 268 267 266 265 265 265 266 267 269 271 273 274 274 274 274 275 276 277 276 276 275 275 274 272 271 271 270 270 270 270 272 274 275 278 280 282 282 282 284 286 286 286 288 288 286 285
268 270 272 274 275 277 279 283 286 287 286 285 284 285 285 285 285 284 282 282 282 283 283 283 283 283 282 282 282 283 284 284 283 282 281 280 277 274 272 271 270 270 269 268 268 268 269 270 271 273 274 273 274 273 273 273 273 275 276 276 276 275 274 273 271 268 268 267 268 270 273 276 278 279 278 276 272 277 284 286 285 288 291 289 289
272 273 275 275 276 279 283 286 288 288 287 287 287 287 286 286 285 285 284 284 284 284 284 284 283 283 283 283 284 284 285 286 285 284 283 280 277 274 271 270 269 268 268 268 268 269 270 271 273 275 275 275 273 272 272 271 271 271 273 274 274 274 274 276 276 273 271 267 265 265 266 268 269 270 270 269 266 270 277 282 284 285 285 284 285
278 277 277 277 279 283 286 288 289 289 288 289 288 288 287 286 286 286 285 285 286 286 285 285 285 285 285 285 285 285 286 287 287 285 283 280 276 273 271 270 269 268 268 269 270 270 271 272 273 274 275 276 275 273 272 271 269 268 269 270 270 272 275 277 277 276 276 273 271 269 267 266 267 269 272 272 271 272 275 279 282 283 283 285 285
281 278 277 280 283 286 288 289 289 289 289 289 288 287 287 287 288 287 287 287 287 286 286 286 286 287 287 286 286 286 287 288 288 286 283 280 276 273 271 271 271 271 272 272 273 273 273 275 276 275 274 273 271 271 271 269 265 267 269 269 270 273 276 277 276 276 275 273 272 271 269 268 269 270 272 273 273 274 276 277 279 281 283 285 285
279 278 279 282 285 287 288 288 289 289 289 288 287 286 287 288 288 288 288 288 288 287 288 288 288 288 288 287 287 287 287 288 288 286 283 281 277 272 268 267 267 268 270 270 271 273 274 277 279 277 273 269 266 266 269 267 263 264 266 267 269 273 276 276 274 271 269 268 267 265 264 265 267 268 269 270 271 272 273 274 277 280 282 283 283
278 279 281 283 285 287 288 288 288 287 287 287 286 286 287 288 288 289 289 289 289 289 289 289 289 289 289 288 287 288 288 288 288 286 283 280 276 270 266 265 265 268 270 271 274 276 279 280 280 276 270 267 267 269 271 269 263 262 262 263 268 274 275 272 269 266 262 259 257 254 255 257 260 262 265 267 268 270 272 273 275 278 279 280 280
280 280 282 284 286 287 287 287 286 285 286 286 286 287 288 289 290 290 290 290 290 290 290 291 290 290 290 290 289 289 288 288 287 286 283 279 276 271 266 264 265 266 269 271 274 276 278 279 278 275 272 272 274 276 276 272 269 267 266 266 269 272 270 267 264 261 257 254 253 255 258 261 264 267 270 272 274 274 275 276 277 278 279 279 279
280 281 284 285 286 286 286 285 285 285 286 286 287 288 290 291 291 292 291 291 291 291 292 292 292 291 291 291 291 290 290 288 285 283 281 279 276 272 267 264 262 262 264 267 269 271 272 272 273 274 275 277 279 278 274 270 267 265 263 262 261 262 263 264 265 265 265 266 267 270 271 272 273 276 278 278 279 279 279 280 280 281 281 281 280
281 283 284 285 285 286 285 285 286 286 286 286 287 289 291 292 293 293 293 293 292 293 294 293 292 292 292 292 292 292 291 288 284 282 280 277 274 271 267 264 260 259 259 261 262 265 267 270 273 275 275 273 271 268 264 263 261 261 260 259 258 260 264 267 270 273 274 275 276 277 278 278 279 280 281 282 282 282 283 283 282 282 281 279 278
283 284 284 284 285 285 285 287 288 287 287 287 288 291 292 293 294 295 295 295 295 295 295 294 294 293 293 293 294 293 291 287 285 283 278 273 270 267 266 265 265 264 264 264 264 265 267 268 270 270 270 269 266 263 261 260 259 260 261 263 264 266 269 271 274 275 275 276 277 278 279 279 280 280 281 282 283 283 284 284 283 281 279 277 275
284 284 284 285 285 286 288 290 289 288 288 288 289 292 293 294 295 295 296 297 297 296 296 296 295 294 295 295 294 292 289 287 284 283 279 276 274 274 274 273 271 269 269 268 268 269 270 269 268 268 268 268 266 264 264 263 262 262 263 265 267 269 271 273 274 274 274 275 277 278 279 280 280 281 282 283 283 283 284 283 282 280 279 277 275
285 284 284 285 286 289 291 292 291 290 290 290 292 294 295 295 295 296 298 299 298 298 297 296 296 296 297 296 294 293 291 289 289 290 288 285 286 288 287 283 279 277 277 278 278 277 275 273 271 269 268 267 267 266 266 266 266 265 264 265 266 268 270 271 271 272 274 276 278 280 281 282 282 283 284 283 283 282 281 280 279 278 278 276 275
284 284 285 286 289 292 292 292 292 292 292 294 295 296 297 297 297 297 299 299 298 298 297 297 299 301 301 298 298 298 297 296 297 297 295 294 297 299 296 291 287 285 284 283 281 278 275 272 271 270 269 269 269 268 269 269 269 268 267 267 268 270 270 270 271 273 275 276 278 279 281 283 283 283 282 281 280 280 279 278 277 276 276 275 274
284 285 287 289 291 293 293 293 293 293 294 296 298 298 299 298 298 299 301 301 300 300 300 301 302 302 301 300 300 299 297 298 299 297 294 293 294 291 289 290 291 290 289 287 283 278 276 275 274 274 273 273 272 272 272 271 271 271 270 270 270 271 270 269 270 273 273 274 275 278 280 282 282 281 280 280 279 279 277 276 275 275 274 275 275
286 288 289 290 292 293 294 294 294 295 296 298 300 301 301 300 299 299 300 301 300 299 299 298 295 290 288 290 293 293 292 293 293 290 286 284 281 277 276 276 276 277 279 280 277 273 271 272 272 273 273 273 272 272 272 271 270 270 271 271 271 270 270 270 271 271 272 273 275 278 280 280 280 280 280 280 279 279 277 276 274 274 275 277 278
288 291 292 292 293 294 295 296 296 296 298 300 301 302 302 303 303 302 301 301 299 298 298 297 294 288 281 278 279 281 281 279 278 277 277 277 275 272 268 267 268 270 271 269 267 266 266 267 267 268 268 267 268 268 269 269 269 270 271 272 272 272 272 273 273 272 272 273 276 277 278 277 277 278 278 278 278 278 277 276 275 276 277 279 279
292 294 295 294 295 296 296 296 296 297 299 301 302 302 302 303 304 305 305 304 303 302 301 300 298 294 288 280 275 271 268 268 269 271 272 270 267 267 268 270 273 275 272 268 266 266 266 266 266 266 265 265 265 266 266 267 268 269 269 270 271 272 273 273 273 272 273 274 275 275 275 275 275 275 276 276 276 276 277 277 277 278 280 280 279
296 296 297 297 297 297 296 296 297 298 300 302 302 302 302 303 303 304 306 306 307 306 306 305 304 301 296 290 285 279 274 272 270 269 269 269 269 272 275 276 274 270 267 266 267 266 266 266 266 266 266 266 266 266 267 268 269 269 270 270 271 271 271 270 270 271 272 272 272 272 272 273 273 273 274 274 274 274 275 276 277 279 280 281 281
298 297 297 298 297 297 297 297 298 300 302 302 302 302 302 303 303 304 305 306 307 308 309 310 309 307 303 300 297 294 292 287 281 278 277 277 280 282 280 276 271 266 264 264 265 266 267 267 267 268 268 269 269 269 269 270 270 271 271 271 271 270 269 268 268 269 269 269 269 270 271 271 270 271 272 272 273 273 274 276 278 280 280 281 282
299 298 298 297 297 297 297 298 300 302 302 302 302 303 303 303 304 304 305 305 306 307 309 310 310 308 306 304 304 302 298 293 289 288 286 284 284 280 273 269 268 265 263 262 263 264 266 267 269 270 270 271 271 270 270 270 270 270 270 270 270 269 268 267 266 266 266 266 267 268 268 268 268 269 270 270 271 272 274 277 279 280 280 282 283
300 300 299 299 298 298 299 300 301 302 302 303 303 303 303 304 304 305 306 306 306 307 308 309 310 309 307 308 308 305 299 294 290 287 283 277 271 265 261 262 264 266 268 268 269 270 271 271 272 272 272 272 272 271 271 270 269 268 268 268 267 267 266 265 265 264 264 264 265 266 267 268 268 267 268 269 271 272 275 278 279 279 280 281 281
303 303 302 302 301 302 302 302 302 303 303 304 304 304 305 306 306 307 307 307 307 308 309 310 311 310 310 311 309 304 300 296 292 289 286 282 277 272 269 268 268 270 271 274 275 277 278 278 277 276 275 275 275 275 275 273 271 269 267 266 266 265 263 262 262 262 262 262 264 265 266 267 266 266 267 269 270 273 276 278 278 279 279 278 278
306 306 305 305 304 304 303 303 304 305 305 305 306 306 307 307 308 308 308 309 309 310 311 311 311 311 312 311 308 304 300 297 294 293 292 290 289 288 287 284 282 281 281 282 283 284 283 282 281 279 277 277 277 277 277 277 276 273 269 266 264 263 262 261 261 261 261 262 263 265 266 265 265 265 266 267 270 273 276 277 277 278 280 279 279
309 308 307 307 306 305 305 305 306 307 307 307 307 308 308 308 309 309 309 310 310 311 312 311 311 312 313 310 308 306 302 298 296 296 295 294 294 293 292 291 290 289 287 286 286 285 284 282 280 278 277 277 276 277 277 277 277 276 273 269 266 263 262 261 261 260 260 261 262 263 264 264 263 263 263 265 269 273 275 276 277 277 279 281 282
311 310 309 309 308 307 307 308 308 309 309 308 308 309 309 309 309 310 310 311 311 312 312 312 312 313 312 309 307 305 299 294 293 292 291 291 291 290 289 289 288 286 285 284 284 283 282 281 280 278 278 277 277 277 277 277 277 277 275 272 269 266 263 262 261 260 260 260 261 261 262 261 260 261 263 266 269 272 273 275 276 277 279 281 283
312 311 310 310 310 309 310 311 311 311 310 310 309 310 310 310 310 311 311 312 312 312 312 312 312 312 310 308 306 302 296 291 291 291 291 291 291 290 289 288 286 285 283 281 280 279 278 278 277 277 278 278 279 277 276 276 276 278 277 275 271 267 265 264 262 261 261 260 259 260 260 259 258 260 263 267 269 272 273 274 275 278 279 281 282
312 312 312 312 313 313 313 314 313 313 312 311 310 311 311 311 312 312 312 312 312 312 311 311 311 311 310 308 307 304 300 298 298 297 297 297 296 295 294 292 290 289 286 282 279 277 275 274 273 274 275 278 278 277 275 275 277 278 278 276 272 268 267 265 264 263 262 260 259 258 258 257 257 260 263 267 270 272 273 273 275 278 280 281 282
313 314 315 315 315 316 316 316 315 314 313 312 312 312 313 312 312 313 313 312 312 312 311 311 312 312 311 311 311 308 306 305 304 303 302 301 299 298 297 295 294 292 289 285 281 277 274 273 273 272 274 277 278 275 273 274 277 280 281 279 273 270 268 267 265 265 262 259 257 256 255 256 257 259 262 266 270 271 272 272 275 278 280 281 283
317 317 318 318 318 318 318 318 317 315 314 314 313 313 313 313 313 314 314 313 313 313 312 312 313 313 313 313 313 311 309 308 306 304 303 301 299 299 298 296 294 292 288 285 282 278 275 273 273 273 274 277 278 275 272 272 277 282 284 280 274 271 270 269 268 266 261 256 255 255 255 256 256 258 262 266 268 270 271 272 276 279 280 281 284
320 321 321 320 320 320 320 320 318 316 315 315 314 314 314 315 316 316 316 315 315 314 313 313 314 314 314 314 313 312 310 308 306 304 303 301 300 299 298 296 295 292 289 286 282 279 275 273 273 274 275 277 278 276 272 273 277 283 284 280 273 270 270 271 269 265 260 256 254 254 254 255 256 257 261 265 267 270 272 273 276 279 281 283 285
323 323 322 322 322 322 321 321 318 317 316 316 315 315 317 317 318 318 317 317 316 315 314 314 315 315 315 315 314 312 310 308 305 304 303 303 302 301 300 298 297 294 290 286 282 278 275 273 273 273 273 275 278 278 275 275 280 285 285 279 272 269 270 271 269 265 260 256 253 253 254 255 256 258 262 265 268 271 273 275 276 278 280 283 286
325 324 324 324 323 322 322 321 319 318 318 317 317 318 318 319 319 319 318 318 316 315 315 316 316 316 316 315 314 312 310 308 307 306 305 305 305 304 302 300 299 296 292 287 282 278 275 274 273 272 274 277 280 279 277 278 282 286 285 279 272 271 273 271 268 263 258 254 252 251 253 255 257 259 262 265 269 272 273 274 276 278 281 282 285
327 326 325 325 324 323 322 320 319 319 319 319 319 320 320 320 320 320 319 318 318 317 317 317 317 317 316 315 314 313 311 309 308 308 308 307 307 306 304 302 298 295 292 287 282 280 279 277 275 274 277 280 282 281 279 279 283 286 286 280 275 273 273 270 265 261 256 252 250 250 251 253 257 260 264 268 272 274 274 275 276 280 282 283 284
327 326 326 325 324 323 322 321 321 321 321 321 321 322 322 322 322 321 320 319 318 318 318 318 318 317 317 315 314 313 312 311 310 310 309 309 308 307 304 300 296 293 290 285 283 283 283 281 278 278 280 282 283 280 277 278 281 286 289 287 281 276 271 267 262 258 254 251 249 249 250 254 257 262 266 271 272 272 273 275 277 280 282 283 284
327 326 326 325 324 323 323 323 323 323 323 323 323 323 323 323 322 322 321 320 319 319 319 319 319 318 317 315 314 313 313 312 311 310 310 309 308 306 302 298 293 291 288 284 283 285 285 282 280 280 281 282 282 279 275 273 275 281 287 288 284 276 268 262 258 254 252 250 248 248 250 255 260 264 268 271 272 272 272 274 277 280 281 282 285